TimeMST,TemperatureF,Dew PointF,Humidity,Sea Level PressureIn,VisibilityMPH,Wind Direction,Wind SpeedMPH,Gust SpeedMPH,PrecipitationIn,Events,Conditions,WindDirDegrees,DateUTC
12:51 AM,95.0,57.0,28,29.65,10.0,WNW,11.5,-,N/A,,Partly Cloudy,300,2013-07-05 07:51:00
1:51 AM,93.9,55.9,28,29.65,10.0,WNW,8.1,-,N/A,,Partly Cloudy,300,2013-07-05 08:51:00
2:51 AM,93.0,55.9,29,29.65,10.0,West,9.2,-,N/A,,Partly Cloudy,270,2013-07-05 09:51:00
3:51 AM,91.9,55.9,30,29.65,10.0,WNW,6.9,-,N/A,,Partly Cloudy,290,2013-07-05 10:51:00
4:51 AM,91.9,55.0,29,29.68,10.0,WNW,6.9,-,N/A,,Scattered Clouds,290,2013-07-05 11:51:00
5:51 AM,90.0,57.0,33,29.70,10.0,SSW,3.5,-,N/A,,Mostly Cloudy,210,2013-07-05 12:51:00
6:51 AM,90.0,57.0,33,29.71,10.0,SW,4.6,-,N/A,,Mostly Cloudy,220,2013-07-05 13:51:00
7:51 AM,91.0,57.0,32,29.74,10.0,Calm,Calm,-,N/A,,Mostly Cloudy,0,2013-07-05 14:51:00
8:51 AM,93.9,55.9,28,29.75,10.0,Variable,3.5,-,N/A,,Mostly Cloudy,0,2013-07-05 15:51:00
9:51 AM,95.0,57.0,28,29.75,10.0,ENE,9.2,-,N/A,,Mostly Cloudy,70,2013-07-05 16:51:00
10:51 AM,96.1,57.0,27,29.75,10.0,ENE,9.2,-,N/A,,Mostly Cloudy,60,2013-07-05 17:51:00
11:51 AM,96.1,57.0,27,29.75,10.0,East,11.5,-,N/A,,Mostly Cloudy,80,2013-07-05 18:51:00
12:51 PM,97.0,57.0,26,29.72,10.0,East,6.9,-,N/A,,Mostly Cloudy,100,2013-07-05 19:51:00
1:51 PM,100.0,55.9,23,29.68,10.0,North,5.8,-,N/A,,Mostly Cloudy,360,2013-07-05 20:51:00
2:51 PM,102.9,55.0,20,29.64,10.0,West,4.6,-,N/A,,Mostly Cloudy,260,2013-07-05 21:51:00
3:51 PM,106.0,55.0,19,29.62,10.0,SSW,9.2,17.3,N/A,,Mostly Cloudy,210,2013-07-05 22:51:00
4:51 PM,105.1,54.0,18,29.60,10.0,WNW,6.9,-,N/A,,Mostly Cloudy,300,2013-07-05 23:51:00
5:51 PM,105.1,54.0,18,29.58,10.0,NW,11.5,18.4,N/A,,Overcast,310,2013-07-06 00:51:00
6:51 PM,104.0,53.1,18,29.59,10.0,NW,8.1,-,N/A,,Overcast,320,2013-07-06 01:51:00
7:51 PM,100.0,60.1,27,29.60,10.0,SSE,8.1,-,N/A,,Overcast,150,2013-07-06 02:51:00
8:51 PM,98.1,61.0,29,29.62,10.0,SSE,9.2,-,N/A,,Overcast,160,2013-07-06 03:51:00
9:51 PM,95.0,62.1,33,29.67,10.0,SSE,8.1,-,N/A,,Mostly Cloudy,150,2013-07-06 04:51:00
10:51 PM,93.9,63.0,36,29.68,10.0,SE,8.1,-,N/A,,Mostly Cloudy,140,2013-07-06 05:51:00
11:51 PM,93.0,63.0,37,29.68,10.0,ESE,6.9,-,N/A,,Mostly Cloudy,110,2013-07-06 06:51:00